Weather Roundup
Issued by NWS Chicago, IL

Home | Current Version | Previous Version | Graphics & Text | Print | Product List | Glossary On
Versions: 1 2 3 4 5 6 7 8 9 10 11 12 13 14 15 16 17 18 19 20 21 22 23 24 25 26 27 28 29 30 31 32 33 34 35 36 37 38 39 40 41 42 43 44 45 46 47 48 49 50
000
NZUS59 KLOT 021110
HRRLOT

CHICAGO AREA WEATHER ROUNDUP
NATIONAL WEATHER SERVICE CHICAGO/ROMEOVILLE IL
500 AM CST MON MAR 02 2015

NOTE: "FAIR" INDICATES FEW OR NO CLOUDS BELOW 12,000 FEET WITH NO
SIGNIFICANT WEATHER AND/OR OBSTRUCTIONS TO VISIBILITY.

* THESE STATIONS ARE NOT UNDER NWS QUALITY CONTROL. THEY ALSO MAY NOT
  REPORT WEATHER SUCH AS PRECIPITATION OR FOG.

ILZ005-006-012>014-019>023-021200-
NORTHEAST ILLINOIS

CITY           SKY/WX    TMP DP  RH WIND       PRES   REMARKS
OHARE          CLEAR     15   8  73 W9        30.44R WCI   3
MIDWAY         PTCLDY    17   9  70 W8        30.45R WCI   7
AURORA         PTCLDY     2  -3  80 NW8       30.46R WCI -12
LANSING*       PTCLDY     9   6  89 W3        30.46R
JOLIET*        PTCLDY     2   0  88 CALM      30.47R FOG
WAUKEGAN       CLEAR     13   8  81 W5        30.43R WCI   5
DUPAGE AIRPORT PTCLDY    12   6  77 NW5       30.44R WCI   4
WHEELING       CLEAR     14   7  73 W5        30.46R WCI   6
KANKAKEE*      PTCLDY     3   0  86 W8        30.47S WCI -10
MORRIS*        PTCLDY     4   2  90 W7        30.46S WCI  -8
LEWIS AIRPORT* MOCLDY     9   6  85 W6        30.46R WCI   0
NORTHERLY IS     N/A     19  10  68 W16         N/A  WCI   5
$$

WIZ051-052-058>065-066-070>072-021200-
SOUTHEAST WISCONSIN

CITY           SKY/WX    TMP DP  RH WIND       PRES   REMARKS
MILWAUKEE      CLEAR     16   7  67 W8        30.42R WCI   5
KENOSHA*       CLEAR      7   3  84 W9        30.42R WCI  -7
RACINE*        CLEAR     13   5  70 W7        30.43R WCI   3
BURLINGTON     CLEAR      6   2  84 SW5       30.43R WCI  -3
WEST BEND      CLEAR     18   9  68 W9        30.39R WCI   6
$$

INZ001>003-010>013-019-020-021200-
NORTHWEST INDIANA

CITY           SKY/WX    TMP DP  RH WIND       PRES   REMARKS
GARY*          CLEAR     16   7  67 W8        30.45R WCI   5
MICHIGAN CITY* NOT AVBL
RENSSELAER*    NOT AVBL
VALPARAISO     MOCLDY     9   4  80 W10       30.43R WCI  -5
$$

LMZ740>746-021200-
SOUTHERN LAKE MICHIGAN

STATION/POSITION TIME  SKY/WX   TEMP WIND        PRES    VSBY
                                AIR  DIR/SP/G
                 (UTC)          (F)  (DEG/KT/KT) (MB)    (MI)
HARRISON CRIB    1100            20  280/ 15/ 19   N/A
BURNHAM HARBOR   1100            19  270/ 13/ 15   N/A
CALUMET HARBOR   1100            18  260/  5/  9 1029.6R
BURNS HARBOR     NOT AVBL
MICHIGAN CITY    1100            18  240/ 11/ 13   N/A
$$

ABBREVIATIONS USED IN REMARKS
   TC - TEMPERATURE IN CELSIUS
  WCI - WIND CHILL INDEX
   HX - HEAT INDEX
  VSB - VISIBILITY
$$



USA.gov is the U.S. government's official web portal to all federal, state and local government web resources and services.